Orbital Elements at Epoch 2358103.3398 (1744-Mar-01.8) TDB
Reference: SAO_2008 (heliocentric ecliptic J2000)
Element | Value | Uncertainty (1-sigma) | Units |
e | 1.0 | n/a | |
a | n/a | n/a | au |
q | 0.222209 | n/a | au |
i | 47.1417 | n/a | deg |
node | 49.2966 | n/a | deg |
peri | 151.4855 | n/a | deg |
M | n/a | n/a | deg |
tp | 2358103.3398 (1744-Mar-01.83980000) | n/a | TDB |
period | n/a n/a | n/a n/a | d yr |
n | n/a | n/a | deg/d |
Q | n/a | n/a | au |
|
| | Orbit Determination Parameters
Additional Information
time units are UT, but set to ET |
original epoch not defined, assumed epoch=tp |
2008 SAO Comet Catalog |
|
|